Temp
6 6 7 7 7 8 8 8 8 9 9 9 9 10 10 10 11 11 11 11 11 11 11 11 11 11 11 11 12 12 12 14 14 13 13 11 11 11 11 11 11 10 10 10 9
6 6 6 7 7 7 8 8 8 9 9 9 9 10 10 10 11 11 11 11 11 11 11 11 11 11 11 11 11 10 12 13 12 12 12 12 11 10 10 11 11 10 10 10 9
6 6 6 7 7 7 8 8 8 8 9 9 9 10 10 11 11 11 11 11 11 11 11 11 11 11 10 11 11 11 12 11 11 11 11 11 10 12 10 9 11 10 9 10 10
5 6 6 6 7 7 8 8 8 8 9 9 10 10 10 10 10 11 11 11 11 11 11 10 10 10 9 10 10 11 10 10 10 11 11 11 10 12 11 10 10 9 10 9 7
5 5 6 6 7 7 7 8 8 8 9 9 10 10 10 10 10 11 11 11 11 11 10 10 10 9 9 9 9 11 10 10 10 10 11 11 12 12 11 10 10 9 9 7 6
5 5 5 6 6 7 7 7 8 9 9 9 10 10 10 10 11 10 11 11 11 10 10 10 9 9 9 9 10 9 9 9 10 10 11 11 11 11 10 10 9 9 8 6 6
4 5 5 5 6 6 6 7 8 8 9 9 9 10 10 10 11 11 11 10 10 10 10 10 9 9 9 9 9 9 9 9 10 10 10 10 10 10 9 9 8 8 7 5 5
4 4 5 5 5 6 6 7 7 8 8 9 9 9 10 10 11 11 10 10 10 9 9 10 9 8 9 8 9 9 10 11 10 9 9 10 9 10 9 7 6 7 6 5 4
3 4 4 5 5 5 5 6 7 7 8 8 9 9 10 10 10 11 10 10 9 9 9 9 9 8 9 9 10 10 12 11 9 9 9 8 10 10 8 6 4 5 4 4 4
2 3 4 4 5 5 5 6 6 7 7 8 8 8 9 10 10 11 10 10 10 9 8 8 8 8 9 9 12 12 11 10 10 9 9 9 9 9 7 4 4 4 4 3 3
-1 2 3 3 4 4 4 5 6 6 7 8 8 9 9 10 10 10 10 10 9 8 8 8 8 9 10 10 10 10 10 10 9 10 9 10 9 8 4 4 4 3 3 2 2
-3 -2 2 2 3 3 4 4 5 6 7 8 8 8 9 9 9 9 9 9 9 8 8 8 9 10 9 9 9 10 10 9 9 9 7 8 7 4 3 4 3 3 2 2 1
-4 -4 -0 1 2 2 3 4 5 5 6 7 8 8 8 8 8 9 9 8 8 8 8 9 10 9 9 9 9 10 10 10 10 9 5 7 6 4 3 3 2 2 2 2 1
-6 -6 -5 -1 1 1 2 3 4 5 5 7 8 9 8 8 8 8 9 8 7 8 8 9 9 9 9 9 9 11 10 10 7 8 10 7 11 3 4 2 3 2 2 2 0
-7 -7 -5 -3 -0 0 1 2 3 3 7 7 8 8 9 8 7 8 8 7 8 8 8 9 9 8 9 9 10 10 10 9 7 9 8 6 8 4 4 3 3 2 2 1 0
-7 -6 -5 -3 -2 -1 0 1 1 2 6 7 7 7 8 8 7 8 8 7 8 8 8 10 9 9 9 9 9 10 10 7 8 9 11 10 9 5 3 3 3 2 2 1 -0
-6 -6 -5 -4 -3 -2 -1 -1 -0 3 6 6 7 7 7 6 6 8 7 7 8 8 8 9 9 9 9 9 9 8 9 11 11 11 12 7 8 5 3 2 2 2 1 0 -1
-7 -6 -5 -5 -4 -3 -2 -1 2 5 6 6 7 6 5 6 6 7 7 7 9 9 10 9 10 9 9 10 9 9 11 12 12 12 12 6 10 5 4 3 1 1 -0 -0 -1
-7 -6 -6 -4 -4 -4 -2 -1 3 4 5 6 5 5 6 6 7 7 7 8 8 9 10 10 11 10 9 10 10 9 10 10 10 9 11 10 4 4 3 3 2 1 0 -0 -1
-9 -8 -5 -6 -6 -4 -3 -1 2 4 5 5 6 6 6 6 7 7 7 8 8 8 9 10 11 9 10 10 10 10 11 10 11 11 11 10 8 7 3 2 2 1 0 -0 -1
-9 -9 -6 -6 -6 -5 -4 -2 0 4 5 5 6 6 7 7 8 8 7 8 8 8 9 9 10 9 10 10 11 10 10 10 10 10 11 11 8 3 2 2 1 1 0 -0 -1
-10 -8 -7 -5 -6 -6 -5 -3 0 4 4 5 6 6 7 7 7 8 8 8 8 8 8 9 9 10 10 10 10 10 10 10 11 10 8 9 7 3 1 1 1 0 0 -1 -1
-10 -7 -7 -6 -6 -5 -5 -3 -1 3 4 4 6 6 7 7 7 8 8 8 8 8 8 9 9 9 9 9 9 9 10 10 10 9 9 10 6 3 1 1 1 0 -0 -1 -1
-8 -7 -6 -6 -6 -4 -4 -3 -2 3 4 5 6 6 7 7 8 7 8 8 8 8 9 9 9 11 11 11 10 9 9 9 9 10 9 8 3 1 1 1 1 1 -0 -1 -1
-9 -7 -6 -6 -6 -6 -4 -3 -1 2 4 5 6 6 7 7 8 8 8 8 8 9 9 9 9 10 10 10 9 8 8 8 8 8 8 5 3 1 2 1 1 0 -0 -1 -1
-9 -7 -6 -5 -5 -6 -4 -3 -1 2 3 5 5 6 7 7 8 8 9 9 9 9 9 10 9 9 8 7 7 8 7 7 7 7 5 4 2 -0 1 1 1 -0 -1 -1 -1
-9 -7 -5 -5 -5 -5 -4 -3 -1 -0 3 5 5 6 7 7 8 9 8 8 9 9 9 10 9 8 6 6 6 6 6 5 7 6 4 3 3 3 1 1 0 -0 -1 -1 -1
Height
3142 3144 3145 3146 3148 3149 3150 3151 3152 3153 3154 3155 3156 3157 3158 3159 3159 3160 3161 3163 3164 3166 3167 3169 3170 3171 3172 3173 3174 3174 3178 3175 3175 3177 3176 3176 3177 3174 3173 3172 3171 3170 3169 3168 3167
3138 3139 3141 3142 3144 3145 3146 3148 3149 3151 3152 3153 3154 3155 3156 3158 3158 3158 3160 3160 3161 3163 3165 3166 3168 3169 3171 3172 3172 3174 3175 3174 3174 3175 3176 3176 3175 3174 3172 3170 3169 3168 3167 3167 3165
3133 3135 3135 3137 3139 3141 3142 3145 3146 3148 3150 3151 3152 3153 3154 3156 3157 3157 3157 3158 3158 3160 3162 3164 3166 3167 3169 3170 3171 3172 3173 3173 3174 3172 3171 3172 3172 3168 3170 3168 3166 3166 3165 3165 3164
3128 3129 3131 3132 3135 3136 3138 3140 3143 3145 3147 3148 3149 3151 3152 3154 3157 3154 3155 3155 3156 3157 3159 3161 3164 3165 3167 3168 3168 3168 3169 3171 3171 3168 3169 3169 3167 3164 3165 3165 3164 3163 3163 3162 3163
3122 3124 3125 3127 3130 3132 3133 3135 3138 3141 3143 3144 3146 3148 3149 3152 3152 3152 3152 3153 3155 3156 3158 3159 3161 3163 3165 3166 3166 3165 3169 3168 3166 3166 3166 3166 3164 3163 3162 3162 3162 3161 3161 3161 3162
3115 3117 3120 3121 3124 3126 3128 3130 3133 3136 3138 3140 3142 3144 3146 3149 3149 3149 3150 3151 3152 3154 3156 3157 3159 3160 3161 3162 3164 3165 3166 3165 3164 3164 3164 3163 3162 3161 3160 3160 3160 3160 3159 3160 3162
3106 3110 3113 3116 3118 3121 3124 3125 3127 3131 3133 3135 3138 3140 3142 3145 3145 3146 3147 3147 3150 3152 3154 3155 3155 3157 3158 3161 3161 3163 3165 3164 3162 3162 3162 3161 3161 3159 3159 3159 3158 3158 3160 3162 3162
3097 3101 3105 3110 3113 3116 3118 3119 3122 3125 3128 3130 3133 3135 3136 3139 3140 3142 3144 3145 3147 3149 3151 3151 3152 3154 3157 3158 3160 3162 3163 3162 3160 3161 3161 3161 3160 3158 3157 3157 3157 3157 3158 3158 3158
3088 3092 3097 3102 3107 3110 3113 3114 3117 3119 3122 3125 3128 3130 3132 3135 3136 3137 3140 3143 3144 3145 3147 3149 3150 3152 3154 3158 3160 3159 3157 3159 3159 3159 3159 3162 3157 3156 3155 3156 3157 3157 3158 3158 3157
3078 3084 3089 3095 3100 3104 3107 3109 3112 3113 3116 3119 3122 3127 3127 3128 3130 3132 3135 3138 3140 3142 3145 3146 3148 3151 3153 3155 3154 3154 3157 3158 3158 3158 3157 3157 3155 3154 3154 3155 3156 3156 3156 3155 3155
3068 3074 3080 3088 3094 3099 3102 3105 3110 3110 3110 3114 3115 3117 3120 3124 3126 3128 3130 3133 3137 3139 3142 3143 3147 3146 3149 3152 3153 3154 3155 3156 3156 3156 3156 3153 3152 3151 3152 3153 3154 3154 3154 3154 3154
3060 3065 3072 3080 3087 3092 3095 3098 3102 3106 3105 3106 3109 3112 3115 3118 3121 3123 3126 3130 3132 3135 3140 3141 3141 3145 3147 3149 3150 3152 3153 3154 3153 3152 3153 3150 3149 3149 3150 3151 3152 3153 3153 3153 3153
3052 3056 3064 3073 3080 3086 3089 3094 3098 3100 3100 3102 3102 3105 3110 3114 3116 3117 3121 3124 3128 3133 3134 3138 3140 3142 3143 3144 3147 3149 3150 3150 3152 3149 3151 3149 3148 3148 3148 3149 3150 3151 3151 3151 3151
3046 3051 3059 3065 3077 3080 3084 3089 3093 3096 3098 3094 3095 3097 3103 3107 3109 3113 3117 3122 3126 3130 3134 3136 3138 3138 3140 3142 3145 3146 3147 3148 3147 3149 3148 3148 3145 3146 3145 3148 3149 3149 3150 3149 3149
3041 3046 3054 3058 3066 3073 3079 3084 3089 3095 3095 3089 3086 3088 3095 3100 3104 3106 3112 3117 3122 3126 3130 3131 3133 3135 3137 3139 3142 3144 3143 3143 3145 3148 3147 3148 3148 3144 3142 3143 3146 3147 3148 3147 3147
3035 3040 3045 3051 3060 3067 3074 3080 3087 3095 3086 3080 3079 3082 3087 3092 3097 3101 3107 3113 3122 3124 3127 3129 3130 3134 3137 3136 3138 3139 3140 3142 3145 3147 3143 3143 3145 3144 3141 3141 3142 3144 3145 3146 3146
3027 3032 3037 3043 3054 3061 3069 3077 3086 3080 3076 3075 3074 3077 3082 3087 3092 3097 3101 3106 3111 3118 3122 3126 3128 3130 3131 3133 3135 3137 3139 3139 3141 3139 3136 3141 3143 3142 3141 3141 3140 3143 3144 3145 3145
3021 3022 3029 3036 3045 3054 3063 3072 3072 3065 3069 3069 3071 3076 3080 3085 3091 3095 3099 3104 3110 3113 3118 3120 3125 3126 3127 3131 3132 3134 3137 3132 3132 3130 3133 3140 3138 3141 3138 3139 3140 3142 3143 3144 3144
3015 3018 3023 3033 3039 3047 3056 3060 3056 3060 3065 3067 3071 3074 3078 3083 3087 3092 3096 3100 3104 3109 3113 3115 3119 3123 3126 3128 3132 3133 3134 3134 3134 3136 3135 3134 3139 3138 3137 3138 3139 3141 3143 3143 3143
3009 3011 3018 3027 3034 3040 3045 3045 3051 3054 3058 3064 3066 3069 3072 3075 3081 3086 3091 3096 3101 3106 3109 3112 3116 3120 3122 3125 3128 3130 3130 3132 3132 3131 3129 3130 3135 3137 3137 3138 3139 3141 3142 3143 3143
3005 3009 3014 3022 3028 3032 3030 3038 3046 3050 3054 3059 3064 3065 3068 3070 3077 3081 3086 3090 3097 3101 3106 3109 3113 3118 3120 3122 3124 3127 3127 3129 3129 3131 3128 3126 3132 3135 3137 3137 3139 3141 3142 3142 3142
3002 3007 3009 3016 3021 3024 3027 3034 3043 3046 3050 3054 3058 3062 3064 3069 3074 3080 3082 3086 3092 3097 3102 3106 3110 3114 3118 3118 3120 3122 3124 3127 3126 3129 3130 3130 3135 3134 3136 3136 3138 3140 3141 3141 3141
2999 3002 3004 3009 3014 3019 3027 3032 3038 3042 3047 3050 3054 3058 3061 3066 3074 3078 3081 3084 3088 3095 3100 3104 3108 3111 3117 3120 3119 3121 3122 3124 3124 3127 3129 3128 3133 3132 3134 3136 3138 3139 3140 3141 3140
2994 2997 2999 3002 3010 3018 3022 3027 3032 3038 3043 3047 3051 3055 3059 3064 3069 3072 3077 3082 3087 3093 3098 3103 3104 3106 3109 3113 3117 3119 3120 3122 3123 3125 3125 3127 3127 3131 3133 3136 3137 3139 3140 3140 3139
2988 2989 2993 2994 3001 3010 3018 3023 3027 3033 3039 3043 3048 3050 3054 3060 3066 3070 3075 3080 3087 3092 3096 3100 3102 3105 3108 3111 3115 3117 3119 3120 3122 3123 3125 3126 3128 3130 3133 3135 3137 3139 3139 3139 3138
2981 2986 2992 2994 3001 3007 3012 3014 3023 3031 3035 3041 3045 3049 3053 3057 3061 3063 3070 3077 3081 3088 3093 3097 3100 3104 3108 3111 3114 3115 3118 3119 3120 3121 3123 3125 3129 3131 3132 3134 3136 3138 3138 3138 3137
2977 2979 2985 2990 2994 3001 3004 3012 3019 3028 3033 3038 3041 3044 3049 3057 3063 3068 3072 3076 3081 3087 3091 3095 3098 3104 3110 3113 3115 3118 3118 3119 3119 3120 3124 3125 3126 3127 3131 3134 3136 3137 3138 3137 3136
Wind_Speed
26 24 23 22 21 17 15 15 13 13 12 11 9 8 7 6 6 8 12 13 13 13 13 13 12 12 11 12 12 12 9 12 8 7 4 4 2 9 13 14 11 13 14 12 8
26 27 26 23 24 21 18 17 14 14 13 12 11 8 7 6 6 6 8 11 13 13 13 12 12 12 13 13 13 10 12 9 8 7 4 5 6 7 8 13 14 12 14 12 9
27 27 26 27 25 23 22 20 17 15 15 14 13 10 7 6 6 7 8 9 10 14 15 16 15 13 12 13 13 11 13 10 4 8 8 8 5 12 7 10 15 13 14 14 13
30 28 28 27 27 25 24 24 21 19 18 16 15 12 9 7 3 6 6 7 9 11 14 14 14 13 11 12 12 13 12 9 10 13 10 10 10 15 14 18 16 14 16 13 11
32 31 29 28 28 27 25 25 25 24 21 20 18 16 14 11 11 11 11 8 6 7 10 12 13 12 11 10 12 13 10 9 11 10 11 15 17 15 13 15 16 16 13 8 3
35 33 32 30 28 28 25 25 26 26 25 24 22 21 19 16 15 16 15 14 11 8 10 11 12 13 12 11 10 6 8 8 10 10 12 14 12 11 12 14 15 14 9 3 11
38 36 34 32 29 28 27 26 26 27 26 26 26 24 25 19 20 18 18 16 15 12 11 13 11 11 11 7 10 8 6 7 9 11 11 8 7 12 11 12 15 11 4 8 9
40 39 37 33 31 28 28 27 26 27 26 25 25 25 27 21 22 20 20 16 18 15 14 15 14 16 12 11 10 8 10 13 12 9 10 8 10 12 14 13 13 7 2 2 6
45 42 40 36 33 29 28 26 26 25 26 26 25 25 25 21 21 23 21 19 18 20 19 17 15 14 14 12 10 11 13 9 6 9 8 8 11 15 15 11 9 7 1 1 2
46 45 41 38 34 30 28 26 26 25 25 26 26 23 24 18 25 23 21 20 21 24 21 18 16 13 14 16 15 10 10 8 4 6 10 12 18 18 14 11 9 6 3 4 4
42 46 43 39 35 31 28 26 25 27 28 28 23 25 21 21 21 19 23 23 23 25 21 19 14 19 16 16 12 7 6 6 7 11 9 15 14 13 11 11 9 5 5 3 2
38 42 43 38 35 30 28 27 25 26 27 28 28 26 17 23 21 21 22 26 28 26 20 18 21 16 14 15 14 11 8 8 10 13 9 11 9 8 10 11 7 5 6 4 4
33 36 41 37 34 30 27 27 24 23 27 28 27 28 29 24 22 24 22 26 30 24 25 20 9 17 16 16 15 13 12 11 7 8 5 4 6 10 12 11 10 9 9 9 8
28 28 27 38 32 29 26 24 20 20 13 22 26 31 28 31 31 21 22 27 23 26 21 20 19 8 18 18 16 14 12 13 14 8 4 10 1 10 12 11 11 11 11 10 8
23 26 24 35 34 27 26 22 18 14 6 12 21 23 30 32 22 31 23 31 24 22 22 16 19 17 17 18 17 15 14 12 14 10 5 12 9 7 12 14 14 13 13 11 9
27 32 24 32 32 28 26 22 19 10 10 10 15 22 29 33 27 21 28 28 21 20 22 13 11 18 12 12 14 17 14 11 9 7 10 3 9 8 5 10 15 16 14 11 9
33 41 32 35 31 28 28 26 14 14 11 12 16 22 24 29 22 24 30 31 28 25 24 20 13 14 18 16 10 10 17 8 8 8 4 2 5 2 5 3 8 12 10 10 9
33 39 28 37 33 32 34 32 16 16 16 9 19 19 24 24 20 27 27 29 27 23 24 22 23 20 19 15 11 18 13 8 6 4 3 2 4 2 5 7 12 13 10 8 8
32 43 26 36 33 35 38 35 21 14 22 13 15 21 19 28 18 26 31 32 29 26 19 21 17 20 16 17 13 16 11 7 3 1 7 3 1 4 5 8 13 11 6 6 6
26 38 28 32 31 38 41 35 21 16 21 17 15 19 26 34 21 25 30 31 29 27 19 14 17 16 25 17 19 12 13 5 7 5 7 5 3 3 9 13 10 9 7 5 6
19 30 20 35 32 38 49 38 22 19 23 22 17 19 21 34 23 26 28 16 31 26 22 13 16 13 22 17 18 14 10 5 2 2 5 6 7 4 9 8 11 9 6 4 4
16 18 23 33 36 32 37 38 26 22 20 21 21 13 21 29 23 22 28 12 31 29 26 15 11 18 17 15 19 13 10 8 7 3 1 5 3 6 11 13 11 7 4 2 4
21 22 25 28 33 32 25 34 29 26 19 18 21 19 21 31 17 17 23 15 34 30 22 19 11 16 9 10 14 8 12 10 4 2 4 6 5 10 15 14 10 4 2 1 5
27 26 23 27 35 33 33 33 35 29 21 18 23 20 23 29 18 24 26 23 36 27 20 19 17 14 15 15 13 11 12 9 4 5 2 3 12 17 16 11 6 4 1 3 6
32 18 29 36 38 24 30 26 36 29 19 17 21 21 24 26 22 23 30 25 30 24 22 19 18 15 11 11 12 12 10 7 4 3 4 10 15 19 15 9 6 4 1 3 4
26 14 26 20 38 34 30 39 28 38 20 15 14 16 23 27 26 35 35 34 34 27 24 20 15 13 9 10 11 13 10 6 3 3 9 17 19 18 15 10 6 4 2 2 6
27 21 15 25 22 37 34 32 34 28 26 15 13 15 26 24 22 20 26 27 33 25 24 19 16 12 8 13 13 9 9 6 5 6 13 19 14 18 15 11 8 5 4 4 6
Wind_Direction
257 255 251 249 248 244 243 244 242 241 236 235 223 203 194 210 211 219 231 231 224 222 220 221 227 234 238 239 230 222 230 252 251 220 193 244 262 273 262 264 294 270 260 292 281
255 256 252 246 249 244 243 243 240 236 235 233 227 215 197 204 209 205 222 242 240 231 224 219 226 232 240 245 247 227 240 252 226 203 217 293 302 274 273 257 275 282 259 283 275
256 253 255 252 246 245 239 243 241 235 234 231 237 233 222 216 229 237 231 232 235 232 226 225 227 230 237 248 248 248 240 247 227 255 273 284 286 271 233 250 264 269 259 286 271
256 254 252 252 249 244 242 240 241 238 233 234 238 241 237 236 223 237 235 236 239 229 223 230 237 236 232 240 238 250 258 252 253 256 264 272 261 274 245 238 263 265 265 286 284
254 255 253 250 249 247 241 240 240 240 236 235 238 242 244 243 248 251 250 252 240 233 219 219 232 233 237 246 247 249 254 250 258 260 262 267 275 267 239 231 248 260 271 269 309
250 251 252 251 250 250 246 240 240 239 239 237 236 241 245 249 253 254 254 251 244 229 225 224 227 237 242 241 233 241 224 235 259 271 273 270 263 233 224 237 247 267 268 254 23
248 248 248 249 249 248 249 243 239 240 239 238 240 241 242 245 249 248 246 242 240 229 222 224 230 238 238 247 224 211 224 225 244 266 280 265 234 218 227 240 249 256 259 27 7
249 244 244 245 248 246 247 244 241 240 239 238 240 241 243 240 238 241 239 235 236 230 226 225 241 233 223 216 202 216 223 226 245 247 251 209 238 222 235 246 254 267 247 314 273
246 242 241 241 244 245 244 243 243 241 240 239 238 242 243 235 231 231 238 233 229 224 225 235 242 230 223 209 224 227 245 229 247 235 232 205 246 238 236 236 258 271 274 284 225
246 243 237 236 238 244 245 241 242 241 240 239 238 240 241 229 228 231 233 231 227 222 226 234 230 221 210 212 228 231 229 228 220 221 219 228 252 254 248 244 243 221 209 179 211
245 242 235 231 232 236 241 241 240 242 237 233 235 232 230 222 221 222 224 220 220 212 213 221 210 216 224 220 233 231 217 220 235 239 239 254 245 240 242 228 234 205 202 241 219
250 242 234 225 226 228 234 237 237 242 242 239 236 232 228 220 222 220 214 208 210 203 199 214 225 227 222 218 219 225 223 212 234 235 238 240 237 225 223 227 239 209 215 217 232
252 237 235 223 219 224 226 231 234 240 246 239 238 235 228 225 222 220 210 204 209 198 207 212 229 221 214 213 214 224 235 218 242 251 186 206 243 231 231 225 226 204 213 222 248
250 239 228 225 215 216 221 223 227 236 254 253 241 238 226 223 229 218 209 206 194 208 210 219 226 224 213 215 214 232 237 231 224 217 243 195 115 220 241 223 227 227 239 238 246
238 215 207 218 208 205 210 210 212 214 248 236 226 221 215 212 223 215 210 197 202 194 196 212 212 209 212 218 221 235 245 218 195 199 211 220 257 148 249 222 224 227 236 239 252
223 211 205 211 201 196 194 194 191 187 234 219 208 204 205 200 205 209 203 193 197 205 208 217 219 205 217 220 203 233 237 155 171 206 240 197 244 157 239 255 227 228 224 239 246
223 204 202 200 188 186 183 177 180 217 213 212 204 197 198 190 191 199 188 188 188 190 204 205 206 196 202 196 201 191 169 168 204 208 315 171 234 131 219 215 221 218 226 241 247
231 212 179 196 183 179 173 174 209 213 190 203 201 194 183 177 188 182 185 187 194 195 193 189 198 195 195 203 201 187 201 269 265 274 30 178 258 215 271 220 192 191 211 232 255
232 207 189 188 181 180 179 189 205 199 198 198 175 174 180 183 181 185 192 193 191 182 183 193 197 191 200 211 196 200 214 229 199 277 266 151 275 292 219 187 185 201 211 234 269
255 223 183 183 188 184 190 196 203 189 184 187 183 186 188 184 179 186 188 199 196 196 193 201 192 199 207 210 211 200 212 197 216 260 295 159 220 64 195 204 203 195 213 248 286
255 235 165 184 192 195 201 197 203 185 182 181 197 193 195 184 188 186 190 197 193 193 188 184 195 185 195 201 206 203 206 205 206 253 300 302 97 157 177 181 183 192 218 260 283
234 228 205 187 194 203 207 195 209 182 183 190 194 201 190 181 184 184 185 206 185 190 187 175 188 181 191 207 198 188 187 199 254 158 238 291 102 195 165 175 182 200 225 245 310
205 209 214 187 200 205 202 205 212 194 190 193 197 192 193 180 180 184 180 176 178 179 185 173 178 154 160 175 180 180 192 190 176 209 231 285 119 172 177 178 183 195 178 320 323
194 216 202 204 198 207 204 206 208 190 186 186 190 189 179 181 185 181 174 182 182 187 189 185 172 191 192 189 181 165 176 177 182 239 237 278 160 160 172 179 179 164 124 335 341
204 202 212 210 207 202 202 207 208 202 182 188 191 185 181 176 183 174 183 172 185 193 197 183 178 185 186 186 165 159 166 172 164 197 249 167 158 163 172 172 156 139 50 1 1
208 213 201 219 208 204 202 209 207 201 186 180 177 198 186 189 187 182 182 191 183 179 180 180 158 163 122 135 160 167 144 157 158 183 124 144 144 158 174 161 143 135 94 78 48
210 197 185 195 197 205 206 202 205 205 195 164 181 183 193 189 187 196 186 178 179 179 181 183 172 150 135 142 140 128 146 140 167 171 155 154 172 172 165 155 148 145 135 80 51